Pasco, WA

6:58 PM PDT on September 27, 2016 (GMT -0700)
Tri-Cities

Weather History for KPSC - September, 2013

Change the Weather History Date:

Wednesday, September 4, 2013

  Actual Average Record
Temperature  
Mean Temperature 77 °F 68 °F  
Max Temperature 93 °F 85 °F 98 °F (2003)
Min Temperature 60 °F 50 °F 1 °F (2016)
Degree Days  
Heating Degree Days 0 1  
Month to date heating degree days 0 4  
Since 1 July heating degree days 0 16  
Cooling Degree Days 12 4  
Month to date cooling degree days 46 16  
Year to date cooling degree days 908 673  
Growing Degree Days 26 (Base 50)    
Moisture  
Dew Point 59 °F    
Average Humidity 66    
Maximum Humidity 100    
Minimum Humidity 32    
Precipitation  
Precipitation 0.00 in 0.01 in 0.16 in (1960)
Month to date precipitation 0.11 0.04  
Year to date precipitation 3.43 5.52  
Snow  
Snow 0.00 in - - ()
Snow Depth 0.00 in    
Sea Level Pressure  
Sea Level Pressure 29.88 in    
Wind  
Wind Speed 2 mph (NE)    
Max Wind Speed 22 mph    
Max Gust Speed 28 mph    
Visibility 10 miles    
Events Thunderstorm    
T = Trace of Precipitation, MM = Missing Value Source: NWS Daily Summary

Daily Weather History Graph

Daily Weather History Graph

Search for Another Location

Airport or City:

Trip Planner

Search our weather history database for the weather conditions in past years. The results will help you decide how hot, cold, wet, or windy it might be!

Date:

Astronomy

Sep. 04, 2013 Rise Set
Actual Time 6:21 AM PDT 7:28 PM PDT
Civil Twilight 5:50 AM PDT 7:59 PM PDT
Nautical Twilight 5:13 AM PDT 8:36 PM PDT
Astronomical Twilight 4:33 AM PDT 9:15 PM PDT
Moon 5:38 AM PDT (9/4) 6:48 PM PDT (9/4)
Length of Visible Light 14h 09m
Length of Day
13h 07m
Waning Crescent, 1% of the Moon is Illuminated
Sep 4
Waning Crescent
Sep 5
New
Sep 12
First Quarter
Sep 19
Full
Sep 26
Last Quarter

Hourly Weather History & Observations

Time (PDT) Temp. Heat Index Dew Point Humidity Pressure Visibility Wind Dir Wind Speed Gust Speed Precip Events Conditions
12:53 AM 68.0 °F - 60.1 °F 76% 29.88 in 10.0 mi Calm Calm - N/A   Clear
1:53 AM 64.9 °F - 61.0 °F 87% 29.89 in 10.0 mi Calm Calm - N/A   Clear
2:53 AM 64.9 °F - 61.0 °F 87% 29.90 in 10.0 mi Calm Calm - N/A   Clear
3:53 AM 66.0 °F - 59.0 °F 78% 29.90 in 10.0 mi Calm Calm - N/A   Clear
4:53 AM 61.0 °F - 60.1 °F 97% 29.90 in 10.0 mi Calm Calm - N/A   Clear
5:53 AM 60.1 °F - 59.0 °F 96% 29.91 in 10.0 mi Calm Calm - N/A   Clear
6:53 AM 60.1 °F - 59.0 °F 96% 29.91 in 10.0 mi NNW 3.5 mph - N/A   Clear
7:53 AM 66.9 °F - 61.0 °F 81% 29.93 in 10.0 mi Calm Calm - N/A   Clear
8:53 AM 73.0 °F - 57.0 °F 57% 29.93 in 10.0 mi Calm Calm - N/A   Clear
9:53 AM 77.0 °F - 55.9 °F 48% 29.94 in 10.0 mi Calm Calm - N/A   Clear
10:53 AM 80.1 °F 80.1 °F 55.0 °F 42% 29.94 in 10.0 mi Calm Calm - N/A   Clear
11:53 AM 84.0 °F 83.0 °F 55.9 °F 38% 29.94 in 10.0 mi East 4.6 mph - N/A   Clear
12:53 PM 87.1 °F 85.7 °F 55.9 °F 35% 29.92 in 10.0 mi Variable 3.5 mph - N/A   Clear
1:53 PM 89.1 °F 87.3 °F 55.9 °F 32% 29.90 in 10.0 mi Calm Calm - N/A   Clear
2:53 PM 90.0 °F 88.6 °F 57.0 °F 33% 29.87 in 10.0 mi Variable 3.5 mph - N/A   Clear
3:53 PM 91.9 °F 92.5 °F 62.1 °F 37% 29.86 in 10.0 mi North 4.6 mph - N/A   Clear
4:53 PM 88.0 °F 87.9 °F 61.0 °F 40% 29.83 in 10.0 mi North 9.2 mph - N/A   Partly Cloudy
5:24 PM 91.4 °F - 51.8 °F 26% 29.85 in 10.0 mi Calm Calm - N/A Thunderstorm Thunderstorm
5:53 PM 91.0 °F 89.2 °F 55.9 °F 30% 29.82 in 10.0 mi ENE 13.8 mph - N/A Thunderstorm Thunderstorm
6:05 PM 91.4 °F 89.1 °F 53.6 °F 28% 29.83 in 10.0 mi NE 10.4 mph - N/A   Clear
6:53 PM 84.9 °F 85.0 °F 61.0 °F 44% 29.86 in 10.0 mi SE 17.3 mph 27.6 mph N/A   Mostly Cloudy
7:53 PM 75.9 °F - 61.0 °F 60% 29.83 in 10.0 mi Calm Calm - N/A   Clear
8:53 PM 75.9 °F - 61.0 °F 60% 29.85 in 10.0 mi Calm Calm - N/A   Clear
9:53 PM 77.0 °F - 64.0 °F 64% 29.86 in 10.0 mi SE 13.8 mph - N/A   Clear
10:53 PM 73.9 °F - 64.9 °F 73% 29.83 in 10.0 mi ENE 5.8 mph - N/A   Partly Cloudy
11:53 PM 73.0 °F - 64.0 °F 73% 29.86 in 10.0 mi Calm Calm - N/A   Clear